Time,TemperatureF,DewpointF,PressureIn,WindDirection,WindDirectionDegrees,WindSpeedMPH,WindSpeedGustMPH,Humidity,HourlyPrecipIn,Conditions,Clouds,dailyrainin,SoftwareType,DateUTC
2013-02-02 00:02:00,26.0,17.0,30.02,South,189,0.0,0.0,68,0.00,,,0.00,,2013-02-02 06:02:00,
2013-02-02 00:12:00,26.0,17.0,30.02,South,189,0.0,0.0,68,0.00,,,0.00,,2013-02-02 06:12:00,
2013-02-02 00:21:00,26.0,17.0,30.02,South,189,0.0,0.0,69,0.00,,,0.00,,2013-02-02 06:21:00,
2013-02-02 00:31:00,26.0,17.0,30.02,South,189,0.0,0.0,69,0.00,,,0.00,,2013-02-02 06:31:00,
2013-02-02 00:42:00,26.0,17.0,30.02,South,189,0.0,0.0,69,0.00,,,0.00,,2013-02-02 06:42:00,
2013-02-02 00:52:00,25.0,17.0,30.02,South,189,0.0,0.0,70,0.00,,,0.00,,2013-02-02 06:52:00,
2013-02-02 01:02:00,25.0,17.0,30.02,South,189,0.0,0.0,72,0.00,,,0.00,,2013-02-02 07:02:00,
2013-02-02 01:12:00,25.0,17.0,30.02,South,189,0.0,0.0,72,0.00,,,0.00,,2013-02-02 07:12:00,
2013-02-02 01:21:00,26.0,19.0,30.02,South,190,0.0,0.0,73,0.00,,,0.00,,2013-02-02 07:21:00,
2013-02-02 01:31:00,26.0,19.0,30.02,South,190,0.0,0.0,73,0.00,,,0.00,,2013-02-02 07:31:00,
2013-02-02 01:42:00,26.0,19.0,30.02,South,190,0.0,0.0,73,0.00,,,0.00,,2013-02-02 07:42:00,
2013-02-02 01:52:00,26.0,19.0,30.02,South,190,0.0,0.0,73,0.00,,,0.00,,2013-02-02 07:52:00,
2013-02-02 02:01:00,25.0,18.0,30.02,South,190,0.0,0.0,75,0.00,,,0.00,,2013-02-02 08:01:00,
2013-02-02 02:11:00,25.0,18.0,30.02,South,190,0.0,0.0,75,0.00,,,0.00,,2013-02-02 08:11:00,
2013-02-02 02:21:00,25.0,18.0,30.02,South,190,0.0,0.0,75,0.00,,,0.00,,2013-02-02 08:21:00,
2013-02-02 02:31:00,26.0,20.0,30.02,South,190,1.0,3.0,79,0.00,,,0.00,,2013-02-02 08:31:00,
2013-02-02 02:41:00,26.0,20.0,30.02,South,190,1.0,3.0,79,0.00,,,0.00,,2013-02-02 08:41:00,
2013-02-02 02:53:00,26.0,21.0,30.02,South,191,0.0,3.0,80,0.00,,,0.00,,2013-02-02 08:53:00,
2013-02-02 03:01:00,26.0,21.0,30.03,SSW,192,0.0,0.0,81,0.00,,,0.00,,2013-02-02 09:01:00,
2013-02-02 03:11:00,26.0,21.0,30.03,SSW,192,0.0,0.0,81,0.00,,,0.00,,2013-02-02 09:11:00,
2013-02-02 03:22:00,26.0,21.0,30.03,SSW,192,0.0,0.0,81,0.00,,,0.00,,2013-02-02 09:22:00,
2013-02-02 03:31:00,26.0,20.0,30.05,WNW,290,0.0,3.0,79,0.00,,,0.00,,2013-02-02 09:31:00,
2013-02-02 03:41:00,26.0,20.0,30.05,WNW,290,0.0,3.0,79,0.00,,,0.00,,2013-02-02 09:41:00,
2013-02-02 03:52:00,26.0,20.0,30.06,WNW,290,0.0,2.0,79,0.00,,,0.00,,2013-02-02 09:52:00,
2013-02-02 04:01:00,26.0,20.0,30.06,WNW,290,0.0,0.0,79,0.00,,,0.00,,2013-02-02 10:01:00,
2013-02-02 04:11:00,26.0,20.0,30.06,WNW,290,0.0,0.0,79,0.00,,,0.00,,2013-02-02 10:11:00,
2013-02-02 04:21:00,27.0,21.0,30.05,WNW,290,0.0,0.0,79,0.00,,,0.00,,2013-02-02 10:21:00,
2013-02-02 04:32:00,27.0,21.0,30.04,WNW,301,0.0,1.0,77,0.00,,,0.00,,2013-02-02 10:32:00,
2013-02-02 04:42:00,27.0,21.0,30.04,WNW,301,0.0,1.0,77,0.00,,,0.00,,2013-02-02 10:42:00,
2013-02-02 04:52:00,27.0,21.0,30.05,WNW,301,0.0,3.0,77,0.00,,,0.00,,2013-02-02 10:52:00,
2013-02-02 05:01:00,27.0,20.0,30.05,West,261,0.0,3.0,76,0.00,,,0.00,,2013-02-02 11:01:00,
2013-02-02 05:11:00,27.0,20.0,30.05,West,261,0.0,3.0,76,0.00,,,0.00,,2013-02-02 11:11:00,
2013-02-02 05:21:00,27.0,20.0,30.05,NNW,336,0.0,4.0,76,0.00,,,0.00,,2013-02-02 11:21:00,
2013-02-02 05:32:00,28.0,21.0,30.05,NNW,334,1.0,4.0,76,0.00,,,0.00,,2013-02-02 11:32:00,
2013-02-02 05:42:00,28.0,21.0,30.05,NNW,334,1.0,4.0,76,0.00,,,0.00,,2013-02-02 11:42:00,
2013-02-02 05:52:00,28.0,21.0,30.05,NNW,334,1.0,4.0,76,0.00,,,0.00,,2013-02-02 11:52:00,
2013-02-02 06:01:00,27.0,20.0,30.08,NNW,329,1.0,5.0,74,0.00,,,0.00,,2013-02-02 12:01:00,
2013-02-02 06:11:00,27.0,20.0,30.08,NNW,329,1.0,5.0,74,0.00,,,0.00,,2013-02-02 12:11:00,
2013-02-02 06:22:00,27.0,20.0,30.08,NNW,327,0.0,5.0,74,0.00,,,0.00,,2013-02-02 12:22:00,
2013-02-02 06:32:00,27.0,20.0,30.08,NW,322,3.0,10.0,73,0.00,,,0.00,,2013-02-02 12:32:00,
2013-02-02 06:42:00,27.0,20.0,30.08,NW,322,3.0,10.0,73,0.00,,,0.00,,2013-02-02 12:42:00,
2013-02-02 06:52:00,27.0,20.0,30.08,NW,318,3.0,10.0,73,0.00,,,0.00,,2013-02-02 12:52:00,
2013-02-02 07:03:00,27.0,20.0,30.09,NW,323,1.0,4.0,75,0.00,,,0.00,,2013-02-02 13:03:00,
2013-02-02 07:11:00,27.0,20.0,30.09,NW,323,1.0,4.0,75,0.00,,,0.00,,2013-02-02 13:11:00,
2013-02-02 07:21:00,26.0,19.0,30.09,NNW,346,1.0,8.0,76,0.00,,,0.00,,2013-02-02 13:21:00,
2013-02-02 07:32:00,26.0,19.0,30.09,NNW,346,1.0,8.0,76,0.00,,,0.00,,2013-02-02 13:32:00,
2013-02-02 07:42:00,26.0,19.0,30.09,NNW,346,1.0,8.0,76,0.00,,,0.00,,2013-02-02 13:42:00,
2013-02-02 07:52:00,26.0,20.0,30.11,North,350,2.0,8.0,78,0.00,,,0.00,,2013-02-02 13:52:00,
2013-02-02 08:02:00,26.0,19.0,30.11,NNW,337,2.0,8.0,76,0.00,,,0.00,,2013-02-02 14:02:00,
2013-02-02 08:11:00,26.0,19.0,30.11,NNW,337,2.0,8.0,76,0.00,,,0.00,,2013-02-02 14:11:00,
2013-02-02 08:22:00,26.0,19.0,30.11,NNW,336,2.0,10.0,73,0.00,,,0.00,,2013-02-02 14:22:00,
2013-02-02 08:32:00,26.0,18.0,30.11,NNW,342,2.0,9.0,72,0.00,,,0.00,,2013-02-02 14:32:00,
2013-02-02 08:42:00,26.0,18.0,30.11,NNW,342,2.0,9.0,72,0.00,,,0.00,,2013-02-02 14:42:00,
2013-02-02 08:52:00,25.0,17.0,30.12,NW,316,4.0,13.0,70,0.00,,,0.00,,2013-02-02 14:52:00,
2013-02-02 09:03:00,25.0,17.0,30.12,NNW,342,3.0,11.0,70,0.00,,,0.00,,2013-02-02 15:03:00,
2013-02-02 09:12:00,25.0,17.0,30.12,NNW,342,3.0,11.0,70,0.00,,,0.00,,2013-02-02 15:12:00,
2013-02-02 09:22:00,25.0,16.0,30.14,NNW,334,3.0,11.0,69,0.00,,,0.00,,2013-02-02 15:22:00,
2013-02-02 09:32:00,25.0,16.0,30.14,North,350,3.0,11.0,69,0.00,,,0.00,,2013-02-02 15:32:00,
2013-02-02 09:42:00,25.0,16.0,30.14,North,350,3.0,11.0,69,0.00,,,0.00,,2013-02-02 15:42:00,
2013-02-02 09:52:00,25.0,16.0,30.14,North,349,2.0,7.0,68,0.00,,,0.00,,2013-02-02 15:52:00,
2013-02-02 10:03:00,26.0,17.0,30.14,NNW,344,1.0,5.0,68,0.00,,,0.00,,2013-02-02 16:03:00,
2013-02-02 10:11:00,26.0,17.0,30.14,NNW,344,1.0,5.0,68,0.00,,,0.00,,2013-02-02 16:11:00,
2013-02-02 10:22:00,26.0,17.0,30.13,North,5,2.0,5.0,67,0.00,,,0.00,,2013-02-02 16:22:00,
2013-02-02 10:32:00,26.0,17.0,30.13,North,5,1.0,5.0,67,0.00,,,0.00,,2013-02-02 16:32:00,
2013-02-02 10:42:00,26.0,17.0,30.13,North,5,1.0,5.0,67,0.00,,,0.00,,2013-02-02 16:42:00,
2013-02-02 10:52:00,26.0,16.0,30.14,NNW,338,2.0,7.0,66,0.00,,,0.00,,2013-02-02 16:52:00,
2013-02-02 11:02:00,26.0,16.0,30.14,North,355,1.0,7.0,66,0.00,,,0.00,,2013-02-02 17:02:00,
2013-02-02 11:11:00,26.0,16.0,30.14,North,355,1.0,7.0,66,0.00,,,0.00,,2013-02-02 17:11:00,
2013-02-02 11:22:00,27.0,17.0,30.14,North,355,0.0,2.0,66,0.00,,,0.00,,2013-02-02 17:22:00,
2013-02-02 11:32:00,27.0,17.0,30.13,NNW,348,0.0,4.0,65,0.00,,,0.00,,2013-02-02 17:32:00,
2013-02-02 11:42:00,27.0,17.0,30.13,NNW,348,0.0,4.0,65,0.00,,,0.00,,2013-02-02 17:42:00,
2013-02-02 11:52:00,27.0,17.0,30.13,NNW,348,0.0,4.0,65,0.00,,,0.00,,2013-02-02 17:52:00,
2013-02-02 12:02:00,28.0,17.0,30.14,North,351,0.0,1.0,64,0.00,,,0.00,,2013-02-02 18:02:00,
2013-02-02 12:12:00,28.0,17.0,30.14,North,351,0.0,1.0,64,0.00,,,0.00,,2013-02-02 18:12:00,
2013-02-02 12:22:00,29.0,18.0,30.14,North,355,0.0,0.0,62,0.00,,,0.00,,2013-02-02 18:22:00,
2013-02-02 12:32:00,28.0,17.0,30.12,North,355,0.0,0.0,64,0.00,,,0.00,,2013-02-02 18:32:00,
2013-02-02 12:42:00,28.0,17.0,30.12,North,355,0.0,0.0,64,0.00,,,0.00,,2013-02-02 18:42:00,
2013-02-02 12:52:00,29.0,18.0,30.12,North,355,0.0,0.0,62,0.00,,,0.00,,2013-02-02 18:52:00,
2013-02-02 13:02:00,30.0,18.0,30.11,North,350,0.0,1.0,61,0.00,,,0.00,,2013-02-02 19:02:00,
2013-02-02 13:12:00,30.0,18.0,30.11,North,350,0.0,1.0,61,0.00,,,0.00,,2013-02-02 19:12:00,
2013-02-02 13:21:00,30.0,18.0,30.11,North,350,0.0,2.0,61,0.00,,,0.00,,2013-02-02 19:21:00,
2013-02-02 13:32:00,30.0,18.0,30.09,North,350,0.0,1.0,61,0.00,,,0.00,,2013-02-02 19:32:00,
2013-02-02 13:42:00,30.0,18.0,30.09,North,350,0.0,1.0,61,0.00,,,0.00,,2013-02-02 19:42:00,
2013-02-02 13:51:00,30.0,18.0,30.07,SW,219,0.0,4.0,61,0.00,,,0.00,,2013-02-02 19:51:00,
2013-02-02 14:01:00,30.0,18.0,30.07,SW,219,0.0,4.0,61,0.00,,,0.00,,2013-02-02 20:01:00,
2013-02-02 14:11:00,30.0,18.0,30.07,SW,219,0.0,4.0,61,0.00,,,0.00,,2013-02-02 20:11:00,
2013-02-02 14:21:00,32.0,20.0,30.09,South,180,1.0,5.0,62,0.00,,,0.00,,2013-02-02 20:21:00,
2013-02-02 14:32:00,32.0,21.0,30.09,SSW,205,1.0,6.0,63,0.00,,,0.00,,2013-02-02 20:32:00,
2013-02-02 14:42:00,32.0,21.0,30.09,SSW,205,1.0,6.0,63,0.00,,,0.00,,2013-02-02 20:42:00,
2013-02-02 14:52:00,31.0,21.0,30.07,South,178,0.0,5.0,67,0.00,,,0.00,,2013-02-02 20:52:00,
2013-02-02 15:02:00,31.0,21.0,30.07,South,178,0.0,5.0,67,0.00,,,0.00,,2013-02-02 21:02:00,
2013-02-02 15:11:00,31.0,21.0,30.07,South,178,0.0,5.0,67,0.00,,,0.00,,2013-02-02 21:11:00,
2013-02-02 15:21:00,32.0,23.0,30.05,South,173,2.0,8.0,69,0.00,,,0.00,,2013-02-02 21:21:00,
2013-02-02 15:32:00,33.0,24.0,30.04,South,173,0.0,1.0,68,0.00,,,0.00,,2013-02-02 21:32:00,
2013-02-02 15:42:00,33.0,24.0,30.04,South,173,0.0,1.0,68,0.00,,,0.00,,2013-02-02 21:42:00,
2013-02-02 15:52:00,33.0,24.0,30.04,South,173,0.0,0.0,68,0.00,,,0.00,,2013-02-02 21:52:00,
2013-02-02 16:02:00,33.0,24.0,30.04,South,173,0.0,0.0,68,0.00,,,0.00,,2013-02-02 22:02:00,
2013-02-02 16:11:00,33.0,24.0,30.04,South,173,0.0,0.0,68,0.00,,,0.00,,2013-02-02 22:11:00,
2013-02-02 16:21:00,33.0,24.0,30.04,South,173,0.0,0.0,68,0.00,,,0.00,,2013-02-02 22:21:00,
2013-02-02 17:02:00,34.0,26.0,29.99,South,178,1.0,5.0,71,0.00,,,0.00,,2013-02-02 23:02:00,
2013-02-02 17:11:00,34.0,26.0,29.99,South,178,1.0,5.0,71,0.00,,,0.00,,2013-02-02 23:11:00,
2013-02-02 17:21:00,34.0,27.0,29.99,South,180,1.0,6.0,74,0.00,,,0.00,,2013-02-02 23:21:00,
2013-02-02 17:32:00,34.0,27.0,29.99,South,180,1.0,6.0,74,0.00,,,0.00,,2013-02-02 23:32:00,
2013-02-02 17:42:00,34.0,27.0,29.99,South,180,1.0,6.0,74,0.00,,,0.00,,2013-02-02 23:42:00,
2013-02-02 17:52:00,33.0,27.0,29.99,South,173,0.0,0.0,77,0.00,,,0.00,,2013-02-02 23:52:00,
2013-02-02 18:02:00,32.0,26.0,29.99,South,173,0.0,0.0,77,0.00,,,0.00,,2013-02-03 00:02:00,
2013-02-02 18:11:00,32.0,26.0,29.99,South,173,0.0,0.0,77,0.00,,,0.00,,2013-02-03 00:11:00,
2013-02-02 18:22:00,32.0,26.0,29.99,South,173,0.0,0.0,78,0.00,,,0.00,,2013-02-03 00:22:00,
2013-02-02 18:32:00,31.0,25.0,29.99,South,173,0.0,0.0,78,0.00,,,0.00,,2013-02-03 00:32:00,
2013-02-02 18:41:00,31.0,25.0,29.99,South,173,0.0,0.0,78,0.00,,,0.00,,2013-02-03 00:41:00,
2013-02-02 18:51:00,31.0,26.0,29.99,South,173,0.0,2.0,80,0.00,,,0.00,,2013-02-03 00:51:00,
2013-02-02 19:02:00,31.0,26.0,30.02,North,349,1.0,4.0,81,0.00,,,0.00,,2013-02-03 01:02:00,
2013-02-02 19:11:00,31.0,26.0,30.02,North,349,1.0,4.0,81,0.00,,,0.00,,2013-02-03 01:11:00,
2013-02-02 19:21:00,31.0,26.0,30.02,SSE,149,0.0,0.0,83,0.00,,,0.00,,2013-02-03 01:21:00,
2013-02-02 19:32:00,31.0,27.0,30.01,SSE,149,0.0,0.0,84,0.00,,,0.00,,2013-02-03 01:32:00,
2013-02-02 19:42:00,31.0,27.0,30.01,SSE,149,0.0,0.0,84,0.00,,,0.00,,2013-02-03 01:42:00,
2013-02-02 19:52:00,31.0,27.0,30.01,SSE,149,0.0,0.0,84,0.00,,,0.00,,2013-02-03 01:52:00,
2013-02-02 20:01:00,31.0,27.0,30.01,SSE,149,0.0,0.0,85,0.00,,,0.00,,2013-02-03 02:01:00,
2013-02-02 20:11:00,31.0,27.0,30.01,SSE,149,0.0,0.0,85,0.00,,,0.00,,2013-02-03 02:11:00,
2013-02-02 20:21:00,31.0,27.0,30.02,SSE,149,0.0,0.0,85,0.00,,,0.00,,2013-02-03 02:21:00,
2013-02-02 20:32:00,30.0,26.0,30.01,SSE,149,0.0,0.0,86,0.00,,,0.00,,2013-02-03 02:32:00,
2013-02-02 20:42:00,30.0,26.0,30.01,SSE,149,0.0,0.0,86,0.00,,,0.00,,2013-02-03 02:42:00,
2013-02-02 20:52:00,30.0,27.0,30.01,SSE,149,0.0,0.0,87,0.00,,,0.00,,2013-02-03 02:52:00,
2013-02-02 21:02:00,30.0,27.0,30.01,SSE,149,0.0,0.0,88,0.00,,,0.00,,2013-02-03 03:02:00,
2013-02-02 21:11:00,30.0,27.0,30.01,SSE,149,0.0,0.0,88,0.00,,,0.00,,2013-02-03 03:11:00,
2013-02-02 21:21:00,31.0,28.0,30.01,SSE,149,0.0,1.0,88,0.00,,,0.00,,2013-02-03 03:21:00,
2013-02-02 21:31:00,34.0,29.0,30.01,SSE,150,0.0,2.0,82,0.00,,,0.00,,2013-02-03 03:31:00,
2013-02-02 21:42:00,34.0,29.0,30.01,SSE,150,0.0,2.0,82,0.00,,,0.00,,2013-02-03 03:42:00,
2013-02-02 21:51:00,36.0,28.0,30.00,WNW,286,0.0,5.0,73,0.00,,,0.00,,2013-02-03 03:51:00,
2013-02-02 22:01:00,37.0,28.0,30.00,WNW,288,1.0,8.0,70,0.00,,,0.00,,2013-02-03 04:01:00,
2013-02-02 22:11:00,37.0,28.0,30.00,WNW,288,1.0,8.0,70,0.00,,,0.00,,2013-02-03 04:11:00,
2013-02-02 22:21:00,38.0,28.0,30.00,WNW,288,1.0,6.0,67,0.00,,,0.00,,2013-02-03 04:21:00,
2013-02-02 22:31:00,38.0,28.0,30.00,WNW,292,2.0,11.0,66,0.00,,,0.00,,2013-02-03 04:31:00,
2013-02-02 22:42:00,38.0,28.0,30.00,WNW,292,2.0,11.0,66,0.00,,,0.00,,2013-02-03 04:42:00,
2013-02-02 22:52:00,38.0,28.0,30.00,WNW,289,2.0,11.0,66,0.00,,,0.00,,2013-02-03 04:52:00,
2013-02-02 23:03:00,38.0,28.0,30.00,NW,321,2.0,8.0,66,0.00,,,0.00,,2013-02-03 05:03:00,
2013-02-02 23:11:00,38.0,28.0,30.00,NW,321,2.0,8.0,66,0.00,,,0.00,,2013-02-03 05:11:00,
2013-02-02 23:22:00,38.0,28.0,30.00,NW,321,2.0,8.0,66,0.00,,,0.00,,2013-02-03 05:22:00,
2013-02-02 23:32:00,38.0,28.0,30.02,WNW,284,2.0,9.0,67,0.00,,,0.00,,2013-02-03 05:32:00,
2013-02-02 23:42:00,38.0,28.0,30.02,WNW,284,2.0,9.0,67,0.00,,,0.00,,2013-02-03 05:42:00,
2013-02-02 23:52:00,38.0,28.0,30.03,WNW,295,1.0,9.0,67,0.00,,,0.00,,2013-02-03 05:52:00,